This is the latest recevied weather packets stored in our database for station/object DB7GV-8. If no packets are shown the sender has not sent any weather packets the latest 1 day(s).
| Time | Temp. | Humidity | Pressure | Rain* | Wind** | Luminosity | Snow |
|---|---|---|---|---|---|---|---|
| 1778013715 | 11.11° C | 89% | 1011.3 hPa | - | 0 m/s | - | - |
| 1778012810 | 11.67° C | 89% | 1011.2 hPa | - | 0 m/s | - | - |
| 1778011905 | 12.22° C | 89% | 1011.1 hPa | - | 0 m/s | - | - |
| 1778010999 | 12.22° C | 89% | 1010.9 hPa | - | 0 m/s | - | - |
| 1778010094 | 12.78° C | 88% | 1010.8 hPa | - | 0 m/s | - | - |
| 1778009188 | 12.78° C | 88% | 1010.5 hPa | - | 0 m/s | - | - |
| 1778008282 | 12.78° C | 88% | 1010.3 hPa | - | 0 m/s | - | - |
| 1778007377 | 13.33° C | 87% | 1010.5 hPa | - | 0 m/s | - | - |
| 1778006472 | 13.33° C | 87% | 1010.4 hPa | - | 0 m/s | - | - |
| 1778005566 | 13.33° C | 86% | 1010.3 hPa | - | 0 m/s | - | - |
| 1778004661 | 13.89° C | 86% | 1010.1 hPa | - | 0 m/s | - | - |
| 1778003756 | 14.44° C | 85% | 1009.9 hPa | - | 0 m/s | - | - |
| 1778002851 | 14.44° C | 84% | 1009.9 hPa | - | 0 m/s | - | - |
| 1778001945 | 14.44° C | 83% | 1009.9 hPa | - | 0 m/s | - | - |
| 1778001040 | 15° C | 81% | 1009.7 hPa | - | 0 m/s | - | - |
| 1778000134 | 15° C | 80% | 1010.1 hPa | - | 0 m/s | - | - |
| 1777999228 | 15° C | 76% | 1010 hPa | - | 0 m/s | - | - |
| 1777998325 | 15.56° C | 72% | 1010.1 hPa | - | 0 m/s | - | - |
| 1777997418 | 16.11° C | 73% | 1009.7 hPa | - | 0 m/s | - | - |
| 1777996513 | 16.67° C | 68% | 1009.5 hPa | - | 0 m/s | - | - |
| 1777995607 | 16.67° C | 65% | 1009.3 hPa | - | 0 m/s | - | - |
| 1777994701 | 17.22° C | 64% | 1009.3 hPa | - | 0 m/s | - | - |
| 1777993796 | 17.78° C | 62% | 1009.3 hPa | - | 0 m/s | - | - |
| 1777992891 | 18.33° C | 57% | 1009.3 hPa | - | 0 m/s | - | - |
| 1777991986 | 18.89° C | 55% | 1009.2 hPa | - | 0 m/s | - | - |
* Rain since midnight (hover to see other rain measurements)
** Current wind speed in m/s (hover to see current wind gust speed)